[[{"header":{"parameterUnit":"m.s-1","parameterCategory":1,"la1":30.2991,"la2":30.254,"lo1":-89.0895,"lo2":-89.0444,"dy":0.0017,"dx":0.0017,"nx":28,"ny":28,"refTime":"2024-10-22T03:00:00:Z","depth":0,"parameterNumber":2,"parameterNumberName":"U-component_of_WINDS"},"data":[0,0,0,0,0,0,0,0,0,0,0,0,0,0,0,0,0,0,0,0,0,0,0,0,0,0,0,0,0,0,0,0,0,0,0,0,0,0,0,0,0,0,0,0,0,0,0,0,0,0,0,0,0,0,0,0,0,0,-0.7121,-0.7121,0,-0.7121,-0.7121,-0.7121,-0.7075,-0.7074,-0.7073,-0.7072,-0.7074,-0.7075,-0.7077,0,0,0,0,0,0,0,0,0,0,0,0,0,-0.7083,-0.7084,-0.7121,-0.7121,-0.7121,-0.7121,-0.7121,-0.7121,-0.7075,-0.7074,-0.7072,-0.7071,-0.7074,-0.7075,-0.7077,0,0,0,0,0,0,0,0,0,0,0,0,0,-0.7093,-0.7084,-0.7121,-0.7098,-0.7096,-0.7121,-0.7121,-0.7121,-0.7076,-0.7074,-0.7072,-0.707,-0.7073,-0.7075,-0.7077,-0.7125,0,0,-0.7083,-0.7083,0,0,0,0,0,0,0,0,-0.7093,-0.7095,-0.7101,-0.7099,-0.7097,-0.7096,-0.7109,-0.7123,-0.7076,-0.7083,-0.7072,-0.7069,-0.7083,-0.7084,-0.7088,-0.7125,-0.7125,-0.7083,-0.7084,-0.7085,-0.7085,0,0,0,0,0,0,0,-0.7092,-0.7094,-0.7121,-0.7101,-0.7099,-0.7089,-0.7088,-0.7111,-0.7094,-0.7083,-0.7079,-0.708,-0.7082,-0.7087,-0.7088,-0.7125,-0.7083,-0.7084,-0.7085,-0.7086,-0.7204,-0.7206,0,0,0,0,0,0,-0.7094,-0.7094,-0.7121,-0.7121,-0.709,-0.7091,-0.709,-0.7098,-0.7093,-0.7091,-0.7081,-0.7078,-0.7084,-0.7086,-0.7088,-0.7145,-0.7085,-0.7086,-0.7087,-0.7202,-0.7205,-0.7207,0,0,0,0,0,0,-0.7094,-0.7097,-0.7121,-0.7107,-0.7109,-0.7093,-0.7103,-0.7099,-0.7104,-0.7092,-0.7089,-0.709,-0.7083,-0.7085,-0.7117,-0.7145,-0.7087,-0.7089,-0.72,-0.7203,-0.7206,-0.726,0,0,0,0,0,0,-0.7093,-0.7097,-0.7114,-0.7107,-0.711,-0.7149,-0.7105,-0.7101,-0.7107,-0.7102,-0.7099,-0.7097,-0.7082,-0.7114,-0.7118,-0.7146,-0.709,-0.7197,-0.7201,-0.7205,-0.7255,-0.7264,-0.7272,0,0,0,0,0,-0.7091,-0.7129,-0.7115,-0.7119,-0.7131,-0.715,-0.7152,-0.7133,-0.711,-0.7127,-0.712,-0.7097,-0.7141,-0.7118,-0.7122,-0.7151,-0.7195,-0.72,-0.7205,-0.7252,-0.7262,-0.7272,0,0,0,0,0,0,-0.714,-0.7128,-0.7112,-0.7148,-0.7151,-0.7142,-0.7164,-0.7145,-0.7154,-0.7149,-0.7127,-0.7126,-0.7162,-0.7159,-0.7133,-0.7198,-0.7164,-0.717,-0.7198,-0.7209,-0.7217,-0.7217,-0.7092,0,0,0,0,0,-0.7154,-0.717,-0.7159,-0.7193,-0.7195,-0.7179,-0.7187,-0.7173,-0.7174,-0.7175,-0.717,-0.7173,-0.7188,-0.7198,-0.7211,-0.7255,-0.7255,-0.7277,-0.7285,-0.7292,-0.7298,-0.7323,-0.7333,-0.7222,-0.7222,-0.7222,0,0,-0.7185,-0.7181,-0.7192,-0.7202,-0.7202,-0.7221,-0.718,-0.7201,-0.7215,-0.7178,-0.7208,-0.7205,-0.7207,-0.7245,-0.7262,-0.7244,-0.7329,-0.7298,-0.7304,-0.7305,-0.7329,-0.7339,-0.7349,-0.7225,-0.7225,-0.7224,0,0,-0.7251,-0.7248,-0.7277,-0.7278,-0.7278,-0.7268,-0.7276,-0.7271,-0.7267,-0.7296,-0.727,-0.7287,-0.7312,-0.7315,-0.732,-0.739,-0.737,-0.7395,-0.7438,-0.7463,-0.7472,-0.748,-0.7506,-0.7516,-0.74,-0.7401,-0.7401,0,-0.7289,-0.7314,-0.7294,-0.7316,-0.7323,-0.7291,-0.7321,-0.7323,-0.7328,-0.7334,-0.7314,-0.7347,-0.7346,-0.7386,-0.7403,-0.7408,-0.7416,-0.7395,-0.7472,-0.748,-0.7487,-0.7512,-0.7521,-0.7404,-0.7403,-0.7403,-0.7403,0,-0.7362,-0.7381,-0.7404,-0.741,-0.7418,-0.7444,-0.7429,-0.7441,-0.7427,-0.7419,-0.7451,-0.7449,-0.7462,-0.747,-0.7456,-0.7509,-0.7498,-0.7476,-0.7441,-0.7501,-0.7524,-0.7533,-0.7408,-0.7407,-0.7406,-0.7405,0,0,-0.7457,-0.7452,-0.7461,-0.7464,-0.7464,-0.7478,-0.7504,-0.7516,-0.7528,-0.7533,-0.7555,-0.7579,-0.7559,-0.7565,-0.7551,-0.7573,-0.7631,-0.7548,-0.7548,-0.7564,-0.7691,-0.7708,-0.7719,-0.7617,-0.7619,-0.762,-0.7691,0,-0.7521,-0.7564,-0.7547,-0.7592,-0.761,-0.7581,-0.7604,-0.7607,-0.7602,-0.7617,-0.7611,-0.7629,-0.76,-0.7604,-0.7624,-0.7619,-0.7656,-0.7614,-0.7639,-0.764,-0.764,-0.7731,-0.7749,-0.7815,-0.77,-0.7701,-0.7702,0,-0.7602,-0.7611,-0.7657,-0.7655,-0.7662,-0.7683,-0.7694,-0.7709,-0.7713,-0.7707,-0.7715,-0.7698,-0.7725,-0.769,-0.7728,-0.77,-0.771,-0.7709,-0.7711,-0.7713,-0.7675,-0.7736,-0.7836,-0.7847,-0.7716,-0.7715,-0.7714,0,-0.7668,-0.7691,-0.7722,-0.7726,-0.7724,-0.774,-0.774,-0.7742,-0.7752,-0.7762,-0.7768,-0.7782,-0.779,-0.7801,-0.7789,-0.7765,-0.783,-0.7793,-0.7827,-0.7828,-0.7842,-0.7841,-0.7946,-0.7847,-0.7847,-0.7847,-0.7847,0,-0.7741,-0.7771,-0.7752,-0.7772,-0.7805,-0.7787,-0.7821,-0.7818,-0.7821,-0.784,-0.7817,-0.7836,-0.7818,-0.7836,-0.7826,-0.786,-0.7864,-0.7861,-0.7859,-0.7864,-0.7864,-0.787,-0.7865,-0.785,-0.7849,-0.7849,-0.7848,0,-0.782,-0.7809,-0.7841,-0.7838,-0.7838,-0.7863,-0.786,-0.7879,-0.7873,-0.7898,-0.7903,-0.7893,-0.7914,-0.7902,-0.7923,-0.7917,-0.7962,-0.7952,-0.796,-0.7958,-0.7993,-0.799,-0.8105,-0.812,-0.8011,-0.8012,-0.8013,0,-0.7868,-0.7891,-0.789,-0.7902,-0.7903,-0.7922,-0.7931,-0.7915,-0.7926,-0.7934,-0.7952,-0.7971,-0.7984,-0.8019,-0.8014,-0.8031,-0.8022,-0.8061,-0.8025,-0.803,-0.8024,-0.8024,-0.8027,-0.8069,-0.807,-0.8071,-0.8072,0,-0.7956,-0.7949,-0.7964,-0.7977,-0.7989,-0.7999,-0.8006,-0.8017,-0.8001,-0.8016,-0.8036,-0.8047,-0.8069,-0.8088,-0.8103,-0.8105,-0.8087,-0.8084,-0.8093,-0.8098,-0.8103,-0.8102,-0.7981,-0.8081,-0.808,-0.808,-0.8079,-0.8079,-0.8021,-0.8041,-0.8044,-0.8061,-0.8066,-0.8074,-0.8092,-0.8088,-0.8105,-0.8121,-0.8111,-0.8136,-0.8142,-0.8159,-0.8164,-0.8184,-0.8169,-0.8181,-0.8185,-0.8188,-0.8194,-0.8099,-0.8187,-0.8187,-0.8186,-0.8186,-0.8186,0,-0.8109,-0.811,-0.8126,-0.8138,-0.8152,-0.8133,-0.8142,-0.8156,-0.8177,-0.8184,-0.8198,-0.8223,-0.8243,-0.8241,-0.8259,-0.8275,-0.8268,-0.8281,-0.828,-0.8281,-0.8206,-0.8197,-0.8287,-0.8287,-0.8287,-0.8287,-0.8287,-0.8287,-0.8156,-0.8188,-0.8182,-0.8218,-0.8219,-0.8242,-0.8249,-0.8258,-0.8263,-0.8292,-0.8307,-0.8306,-0.831,-0.8328,-0.8346,-0.8345,-0.8353,-0.837,-0.8366,-0.8296,-0.8286,-0.8276,-0.8268,-0.8371,-0.8372,-0.844,-0.844,-0.8441]},{"header":{"parameterUnit":"m.s-1","parameterCategory":1,"la1":30.2991,"la2":30.254,"lo1":-89.0895,"lo2":-89.0444,"dy":0.0017,"dx":0.0017,"nx":28,"ny":28,"refTime":"2024-10-22T03:00:00:Z","depth":0,"parameterNumber":3,"parameterNumberName":"V-component_of_WINDS"},"data":[0,0,0,0,0,0,0,0,0,0,0,0,0,0,0,0,0,0,0,0,0,0,0,0,0,0,0,0,0,0,0,0,0,0,0,0,0,0,0,0,0,0,0,0,0,0,0,0,0,0,0,0,0,0,0,0,0,0,1.5734,1.5734,0,1.5745,1.5745,1.5745,1.5784,1.5785,1.5786,1.5786,1.5793,1.5793,1.5792,0,0,0,0,0,0,0,0,0,0,0,0,0,1.5743,1.5742,1.5734,1.5734,1.5734,1.5745,1.5745,1.5745,1.5784,1.5785,1.5786,1.5787,1.5794,1.5793,1.5792,0,0,0,0,0,0,0,0,0,0,0,0,0,1.5745,1.5742,1.5734,1.5755,1.5757,1.5745,1.5745,1.5745,1.5783,1.5785,1.5786,1.5787,1.5794,1.5793,1.5792,1.576,0,0,1.5789,1.5789,0,0,0,0,0,0,0,0,1.5744,1.5744,1.5752,1.5753,1.5756,1.5765,1.5751,1.575,1.5783,1.5773,1.5786,1.5788,1.5782,1.5782,1.5781,1.576,1.576,1.5789,1.5788,1.5788,1.5788,0,0,0,0,0,0,0,1.5744,1.5744,1.5738,1.5752,1.5754,1.5762,1.5764,1.5751,1.577,1.5774,1.5777,1.5778,1.5784,1.5782,1.5782,1.576,1.5789,1.5788,1.5788,1.5787,1.5713,1.5712,0,0,0,0,0,0,1.5742,1.5744,1.5738,1.5739,1.5753,1.5761,1.5763,1.576,1.577,1.5773,1.5777,1.578,1.5783,1.5783,1.5782,1.5745,1.5788,1.5787,1.5787,1.5715,1.5713,1.5711,0,0,0,0,0,0,1.5742,1.5741,1.5737,1.5742,1.5742,1.576,1.5756,1.576,1.5758,1.5773,1.5776,1.5772,1.5784,1.5784,1.5765,1.5746,1.5787,1.5786,1.5716,1.5714,1.5712,1.567,0,0,0,0,0,0,1.5742,1.5741,1.5729,1.5741,1.5742,1.5721,1.5755,1.5759,1.5757,1.5761,1.5769,1.5771,1.5785,1.5767,1.5764,1.5745,1.5785,1.5718,1.5715,1.5713,1.5673,1.5667,1.5661,0,0,0,0,0,1.5742,1.5716,1.5728,1.5727,1.5728,1.572,1.572,1.5738,1.5756,1.5744,1.5753,1.5771,1.5749,1.5764,1.5762,1.5742,1.5719,1.5716,1.5713,1.5676,1.5668,1.5661,0,0,0,0,0,0,1.5699,1.5718,1.5732,1.5709,1.5713,1.5726,1.5712,1.5729,1.5726,1.573,1.5751,1.5752,1.5731,1.5735,1.5752,1.5712,1.5737,1.5733,1.5709,1.5702,1.5696,1.5695,1.5784,0,0,0,0,0,1.5687,1.568,1.5697,1.5675,1.5676,1.5694,1.5691,1.5705,1.5709,1.571,1.5718,1.572,1.5713,1.5708,1.5703,1.5675,1.5676,1.566,1.5654,1.5649,1.5645,1.563,1.5623,1.5701,1.5701,1.5701,0,0,1.5662,1.5671,1.5665,1.5667,1.5671,1.5662,1.5695,1.5684,1.5677,1.5708,1.5691,1.5697,1.5701,1.5677,1.5667,1.568,1.5624,1.5645,1.5641,1.564,1.5626,1.5618,1.5612,1.5699,1.5699,1.57,0,0,1.5611,1.5618,1.5601,1.5605,1.5612,1.5625,1.562,1.5632,1.5637,1.5622,1.5645,1.5637,1.5625,1.5627,1.5626,1.5578,1.5594,1.5576,1.5543,1.5529,1.5522,1.5517,1.5499,1.5492,1.5572,1.5572,1.5572,0,1.5578,1.5567,1.5589,1.5578,1.5577,1.5607,1.5589,1.5591,1.5596,1.5594,1.5609,1.5596,1.56,1.5578,1.5566,1.5565,1.556,1.5574,1.5522,1.5517,1.5512,1.5495,1.5488,1.5569,1.557,1.557,1.557,0,1.5526,1.5518,1.5503,1.5508,1.5506,1.5491,1.551,1.5506,1.552,1.553,1.5514,1.5521,1.5517,1.5514,1.5527,1.5493,1.55,1.5518,1.5544,1.5501,1.5486,1.5479,1.5566,1.5567,1.5567,1.5568,0,0,1.5446,1.5466,1.546,1.5462,1.5473,1.5467,1.5453,1.5452,1.5447,1.5449,1.5437,1.5428,1.5445,1.5444,1.5458,1.5445,1.5406,1.5465,1.5465,1.5453,1.5368,1.5353,1.5345,1.5418,1.5417,1.5416,1.5367,0,1.5397,1.5376,1.5396,1.5371,1.5363,1.5392,1.538,1.5385,1.5394,1.5389,1.5399,1.5391,1.5415,1.5415,1.5404,1.5413,1.5389,1.5417,1.5405,1.5405,1.5402,1.5337,1.5321,1.5275,1.5361,1.536,1.5359,0,1.5337,1.5338,1.5312,1.5325,1.5323,1.5312,1.5312,1.5307,1.5313,1.5321,1.5321,1.5339,1.5325,1.5352,1.5333,1.5352,1.5349,1.5353,1.5351,1.5349,1.5378,1.5332,1.526,1.5253,1.535,1.5351,1.5351,0,1.528,1.5275,1.5259,1.5261,1.5276,1.5267,1.5273,1.5281,1.5279,1.5279,1.5278,1.5276,1.5274,1.5272,1.5289,1.5307,1.5267,1.5296,1.5272,1.5272,1.5261,1.5261,1.5186,1.5262,1.5262,1.5262,1.5262,0,1.5222,1.5204,1.5234,1.5223,1.5205,1.5228,1.5209,1.5217,1.5224,1.5215,1.524,1.5231,1.5255,1.5248,1.5261,1.5243,1.5242,1.5247,1.525,1.5244,1.5243,1.524,1.5243,1.526,1.526,1.5261,1.5261,0,1.5154,1.5173,1.5157,1.5174,1.5178,1.5163,1.5176,1.5167,1.518,1.5168,1.5167,1.5185,1.5179,1.5196,1.5191,1.52,1.5174,1.5183,1.5172,1.5174,1.5149,1.5151,1.5069,1.5059,1.5142,1.5141,1.5141,0,1.5114,1.5102,1.5118,1.5115,1.512,1.5114,1.5113,1.5136,1.5133,1.514,1.5129,1.5125,1.5123,1.5111,1.5123,1.512,1.5128,1.51,1.5128,1.5122,1.5126,1.5126,1.5124,1.5093,1.5092,1.5092,1.5091,0,1.5043,1.5053,1.5051,1.5052,1.5051,1.5052,1.5056,1.5051,1.5076,1.5072,1.5066,1.5065,1.5061,1.5056,1.5056,1.5061,1.5079,1.5083,1.5077,1.5069,1.5062,1.5064,1.5154,1.5084,1.5084,1.5085,1.5085,1.5086,1.4987,1.4977,1.4987,1.4984,1.499,1.4992,1.4985,1.4997,1.4993,1.4993,1.5007,1.4998,1.5005,1.5007,1.501,1.5003,1.5016,1.5008,1.5005,1.5002,1.4998,1.5065,1.5003,1.5004,1.5004,1.5004,1.5004,0,1.4915,1.4924,1.4921,1.4925,1.4923,1.4943,1.4948,1.4944,1.4937,1.4943,1.4941,1.4934,1.493,1.4943,1.494,1.4932,1.494,1.493,1.493,1.4931,1.4987,1.4992,1.4924,1.4924,1.4924,1.4924,1.4924,1.4924,1.4877,1.4862,1.4874,1.4861,1.487,1.4863,1.4864,1.4866,1.4871,1.4863,1.486,1.487,1.4878,1.4876,1.4873,1.4877,1.4874,1.4861,1.4867,1.4919,1.4927,1.4934,1.4939,1.486,1.486,1.4811,1.4811,1.4811]}]]